Weather in Satka

Russia / Chelyabinsk Oblast     55°02′25″N   59°01′43″E
temp.,
°C
wind,
m/s
gust,
m/s
humid.,
%
clouds,
%
prec.,
mm/h
press.,
hPa
HPBL,
m
15 august, mon
mon1523:00+9sse11800 0.0 102210
02:00+9s11750 0.0 102311
05:00+8s11730 0.0 102310
08:00+13wsw00590 0.0 1023102
11:00+18nnw23424 0.0 10231464
14:00+19nnw33390 0.0 10231800
17:00+19nnw34461 0.0 10221628
20:00+14nnw017318 0.0 102211
16 august, tue
tue1623:00+10sse00860 0.0 102410
02:00+9ssw11820 0.0 102410
05:00+8s00860 0.0 102510
08:00+12nne11690 0.0 1026154
11:00+17n23460 0.0 10251017
14:00+20n23390 0.0 10241629
17:00+19n34444 0.0 10241622
20:00+14w11721 0.0 102411
17 august, wed
wed1723:00+11ssw227549 0.0 102525
02:00+11sw237630 0.0 102545
05:00+11sw227491 0.0 102541
08:00+13w127152 0.0 1025129
11:00+18nnw35515 0.0 10241071
14:00+20nnw45420 0.0 10231474
17:00+19nnw45430 0.0 10221412
20:00+13wnw11711 0.0 102211
18 august, thu
thu1823:00+10sw117699 0.0 102311
02:00+11wsw1170100 0.0 102214
05:00+11wsw1171100 0.0 102215
08:00+12nw117171 0.0 1022143
11:00+15nnw236387 0.0 1022810
14:00+17nnw355195 0.1 10211761
17:00+18nnw454446 0.1 10211939
20:00+12n117165 0.0 102210
19 august, fri
fri1923:00+8ese11874 0.0 102410
02:00+7se21940 0.0 102513
05:00+6se21940 0.0 102712
08:00+10ese11710 0.0 1028164
11:00+16ne21430 0.0 10281385
14:00+18n21343 0.0 10271781
17:00+18n32340 0.0 10271671
20:00+11n11650 0.0 102810